Cross City, FL

11:25 PM EDT on October 15, 2019 (GMT -0400)
Cross City

Weather History for KCTY - July, 2019

Change the Weather History Date:

Wednesday, July 24, 2019

  Actual Average Record
Temperature  
Mean Temperature 77 °F 82 °F  
Max Temperature 83 °F 91 °F 96 °F (2005)
Min Temperature 71 °F 72 °F 70 °F (2008)
Degree Days  
Heating Degree Days 0 0  
Month to date heating degree days 0  
Since 1 June heating degree days 0  
Since 1 July heating degree days 0  
Cooling Degree Days 12 17  
Month to date cooling degree days 392  
Year to date cooling degree days 1318  
Since 1 June cooling degree days 839  
Growing Degree Days 27 (Base 50)    
Moisture  
Dew Point 74 °F    
Average Humidity 97    
Maximum Humidity 100    
Minimum Humidity 82    
Precipitation  
Precipitation 3.39 in 0.20 in 2.14 in (2006)
Month to date precipitation 4.23  
Year to date precipitation 26.49  
Sea Level Pressure  
Sea Level Pressure 29.93 in    
Wind  
Wind Speed 4 mph (SSW)    
Max Wind Speed 15 mph    
Max Gust Speed -    
Visibility 8 miles    
Events Rain , Thunderstorm    
T = Trace of Precipitation, MM = Missing Value Source: NWS Daily Summary

Daily Weather History Graph

Daily Weather History Graph

Search for Another Location

Airport or City:

Astronomy

Jul. 24, 2019 Rise Set
Actual Time 6:47 AM EDT 8:30 PM EDT
Civil Twilight 6:20 AM EDT 8:56 PM EDT
Nautical Twilight 5:49 AM EDT 9:28 PM EDT
Astronomical Twilight 5:16 AM EDT 10:01 PM EDT
Moon 12:45 AM EDT (7/24) 1:26 PM EDT (7/24)
Length of Visible Light 14h 35m
Length of Day
13h 42m
Waning Gibbous, 54% of the Moon is Illuminated
Jul 24
Waning Gibbous
Jul 24
Last Quarter
Jul 31
New
Aug 7
First Quarter
Aug 15
Full

Hourly Weather History & Observations

Time (EDT) Temp. Heat Index Dew Point Humidity Pressure Visibility Wind Dir Wind Speed Gust Speed Precip Events Conditions
12:15 AM 74.8 °F - 73.4 °F 95% 29.95 in 10.0 mi SSW 6.9 mph - 0.01 in Thunderstorm Mostly Cloudy
12:35 AM 74.8 °F - 73.6 °F 96% 29.94 in 7.0 mi South 4.6 mph - 0.03 in Rain , Thunderstorm Light Thunderstorms and Rain
12:55 AM 74.7 °F - 73.6 °F 96% 29.93 in 10.0 mi SSE 4.6 mph - 0.03 in Rain , Thunderstorm Light Thunderstorms and Rain
1:15 AM 74.3 °F - 73.4 °F 97% 29.92 in 10.0 mi SSE 3.5 mph - 0.01 in Rain Light Rain
1:35 AM 74.3 °F - 73.4 °F 97% 29.91 in 10.0 mi SSE 3.5 mph - 0.01 in   Scattered Clouds
1:55 AM 74.7 °F - 73.6 °F 96% 29.92 in 3.0 mi Calm Calm - 0.08 in Rain Heavy Rain
2:15 AM 74.5 °F - 73.8 °F 98% 29.91 in 10.0 mi SE 3.5 mph - N/A   Overcast
2:35 AM 74.3 °F - 73.6 °F 98% 29.90 in 10.0 mi Calm Calm - N/A Thunderstorm Mostly Cloudy
2:55 AM 74.5 °F - 73.9 °F 98% 29.89 in 10.0 mi SSE 4.6 mph - N/A   Mostly Cloudy
3:15 AM 74.7 °F - 74.1 °F 98% 29.89 in 10.0 mi Calm Calm - 0.01 in Rain Light Rain
3:35 AM 74.5 °F - 73.9 °F 98% 29.88 in 10.0 mi Calm Calm - 0.01 in   Scattered Clouds
3:55 AM 74.7 °F - 74.1 °F 98% 29.88 in 10.0 mi Calm Calm - 0.01 in   Scattered Clouds
4:15 AM 74.5 °F - 74.1 °F 99% 29.88 in 10.0 mi Calm Calm - N/A   Scattered Clouds
4:35 AM 74.7 °F - 74.3 °F 99% 29.88 in 7.0 mi Calm Calm - N/A   Scattered Clouds
4:55 AM 74.8 °F - 74.5 °F 99% 29.89 in 7.0 mi ESE 3.5 mph - N/A   Mostly Cloudy
5:15 AM 74.8 °F - 74.5 °F 99% 29.89 in 10.0 mi Calm Calm - N/A   Mostly Cloudy
5:35 AM 74.8 °F - 74.5 °F 99% 29.89 in 10.0 mi Calm Calm - N/A   Mostly Cloudy
5:55 AM 75.2 °F - 73.4 °F 94% 29.88 in 7.0 mi Calm Calm - N/A   Scattered Clouds
6:15 AM 74.1 °F - 73.9 °F 99% 29.89 in 5.0 mi South 3.5 mph - N/A   Scattered Clouds
6:55 AM 74.8 °F - 74.5 °F 99% 29.89 in 7.0 mi SSW 3.5 mph - 0.01 in Rain Light Rain
7:15 AM 74.8 °F - 74.3 °F 98% 29.90 in 10.0 mi Calm Calm - N/A   Scattered Clouds
7:35 AM 75.0 °F - 74.7 °F 99% 29.91 in 10.0 mi Calm Calm - N/A   Clear
7:55 AM 75.4 °F - 74.8 °F 98% 29.91 in 10.0 mi SW 3.5 mph - N/A Thunderstorm Clear
8:15 AM 75.2 °F - 75.2 °F 100% 29.92 in 10.0 mi SSW 5.8 mph - N/A Rain Light Rain
8:35 AM 76.6 °F - 75.2 °F 95% 29.91 in - Calm Calm - N/A Thunderstorm Thunderstorm
9:15 AM 77.7 °F - 75.9 °F 94% 29.93 in 10.0 mi Calm Calm - N/A Thunderstorm Clear
9:35 AM 78.3 °F - 76.1 °F 93% 29.93 in 10.0 mi Calm Calm - N/A Rain , Thunderstorm Light Thunderstorms and Rain
9:55 AM 78.1 °F - 75.9 °F 93% 29.92 in 10.0 mi Calm Calm - N/A Rain , Thunderstorm Light Thunderstorms and Rain
10:15 AM 78.4 °F - 76.5 °F 94% 29.94 in 10.0 mi Calm Calm - N/A Thunderstorm Thunderstorm
10:35 AM 79.0 °F - 76.5 °F 92% 29.95 in 10.0 mi WNW 3.5 mph - N/A Rain Light Rain
10:55 AM 80.6 °F 87.1 °F 77.0 °F 89% 29.94 in 10.0 mi NNW 3.5 mph - N/A Thunderstorm Scattered Clouds
11:15 AM 80.4 °F 86.6 °F 76.8 °F 89% 29.94 in 10.0 mi NW 4.6 mph - N/A   Scattered Clouds
11:35 AM 81.0 °F 87.7 °F 76.6 °F 87% 29.93 in 10.0 mi WSW 3.5 mph - N/A   Scattered Clouds
11:55 AM 82.6 °F 90.8 °F 76.6 °F 82% 29.93 in 10.0 mi South 6.9 mph - N/A   Mostly Cloudy
12:35 PM 81.0 °F 88.1 °F 77.5 °F 89% 29.93 in 10.0 mi SW 6.9 mph - N/A Rain Light Rain
12:55 PM 78.4 °F - 76.1 °F 92% 29.94 in 7.0 mi SSW 11.5 mph - 0.06 in Rain , Thunderstorm Heavy Thunderstorms and Rain
1:15 PM 77.7 °F - 75.4 °F 92% 29.94 in 10.0 mi West 5.8 mph - 0.03 in Rain , Thunderstorm Light Thunderstorms and Rain
1:35 PM 78.8 °F - 77.0 °F 94% 29.93 in 10.0 mi SW 5.8 mph - 0.05 in Rain Rain
1:55 PM 77.0 °F - 75.4 °F 95% 29.93 in 10.0 mi South 15.0 mph - 0.08 in Rain , Thunderstorm Light Thunderstorms and Rain
2:15 PM 75.0 °F - 73.2 °F 94% 29.93 in 2.0 mi SE 4.6 mph - 0.10 in Rain Heavy Rain
2:35 PM 74.8 °F - 73.8 °F 96% 29.93 in 5.0 mi East 6.9 mph - 0.11 in Rain Light Rain
2:55 PM 74.1 °F - 73.0 °F 96% 29.95 in 0.8 mi South 8.1 mph - 0.60 in Rain , Thunderstorm Heavy Thunderstorms and Rain
3:15 PM 73.6 °F - 72.9 °F 98% 29.96 in 1.0 mi West 5.8 mph - 0.69 in Rain Heavy Rain
3:35 PM 72.5 °F - 71.8 °F 98% 29.94 in 1.8 mi SW 12.7 mph - 1.19 in Rain , Thunderstorm Heavy Thunderstorms and Rain
3:55 PM 72.7 °F - 72.0 °F 98% 29.95 in 2.0 mi SSW 8.1 mph - 1.59 in Rain , Thunderstorm Heavy Thunderstorms and Rain
4:15 PM 72.3 °F - 71.8 °F 98% 29.95 in 2.5 mi West 3.5 mph - 0.18 in Rain , Thunderstorm Heavy Thunderstorms and Rain
4:35 PM 72.0 °F - 71.2 °F 98% 29.95 in 7.0 mi West 8.1 mph - 0.28 in Rain , Thunderstorm Thunderstorms and Rain
4:55 PM 72.0 °F - 71.2 °F 98% 29.96 in 10.0 mi NW 3.5 mph - 0.32 in Rain Rain
5:15 PM 71.8 °F - 71.1 °F 98% 29.96 in 3.0 mi Calm Calm - 0.06 in Rain Rain
5:35 PM 72.0 °F - 71.6 °F 99% 29.96 in 3.0 mi Calm Calm - 0.19 in Rain Heavy Rain
5:55 PM 72.0 °F - 71.6 °F 99% 29.96 in 1.5 mi NE 6.9 mph - 0.34 in   Overcast
6:15 PM 72.0 °F - 71.6 °F 99% 29.97 in 1.8 mi East 4.6 mph - 0.12 in Rain Heavy Rain
6:35 PM 72.0 °F - 71.6 °F 99% 29.97 in 3.0 mi ENE 3.5 mph - 0.19 in Rain Heavy Rain
6:55 PM 71.8 °F - 71.6 °F 99% 29.94 in 3.5 mi SE 5.8 mph - 0.27 in Rain Rain
7:15 PM 72.0 °F - 71.8 °F 99% 29.93 in 5.0 mi SSE 5.8 mph - 0.06 in Rain Rain
7:35 PM 72.3 °F - 72.0 °F 99% 29.95 in 4.0 mi Calm Calm - 0.10 in Rain Rain
7:55 PM 72.3 °F - 72.0 °F 99% 29.94 in 7.0 mi SSE 5.8 mph - 0.14 in Rain Light Rain
8:15 PM 72.5 °F - 72.1 °F 99% 29.95 in 5.0 mi NNW 5.8 mph - 0.05 in Rain Heavy Rain
8:35 PM 72.3 °F - 72.0 °F 99% 29.96 in 7.0 mi NW 6.9 mph - 0.10 in Rain Rain
8:55 PM 72.3 °F - 72.0 °F 99% 29.96 in 10.0 mi NW 5.8 mph - 0.10 in Rain Light Rain
9:15 PM 72.1 °F - 71.8 °F 99% 29.95 in 10.0 mi NE 3.5 mph - N/A   Scattered Clouds
9:35 PM 72.1 °F - 72.0 °F 99% 29.96 in 10.0 mi NNE 4.6 mph - N/A   Mostly Cloudy
9:55 PM 72.3 °F - 72.1 °F 99% 29.96 in 10.0 mi NE 3.5 mph - N/A   Overcast
10:15 PM 72.5 °F - 72.1 °F 99% 29.97 in 10.0 mi NNE 4.6 mph - N/A   Overcast
10:35 PM 72.5 °F - 72.1 °F 99% 29.98 in 10.0 mi Calm Calm - N/A   Overcast
10:55 PM 72.3 °F - 72.1 °F 99% 29.99 in 10.0 mi Calm Calm - N/A   Overcast
11:15 PM 72.5 °F - 72.1 °F 99% 29.99 in 10.0 mi Calm Calm - N/A   Overcast
11:35 PM 72.5 °F - 72.1 °F 99% 29.99 in 10.0 mi Calm Calm - N/A   Overcast
11:55 PM 72.1 °F - 71.8 °F 99% 29.98 in 10.0 mi Calm Calm - 0.01 in   Scattered Clouds